Location: Larkspur
(54.4391°N, 113.7691°W)
Time: 02:09:10
(UTC+00:00)

YUBILEINY - Pass Details

Date: 06 December 2023
Orbit: 1479 x 1508 km, 82.5° (Epoch: 03 March)

Event Time Altitude Azimuth Distance (km) Brightness Sun altitude
Rises 03:10:37 0° 346° (NNW) 4,637 ? -33.2°
Reaches altitude 10° 03:13:34 10° 350° (N) 3,649 ? -33.6°
Enters shadow 03:20:26 55° 20° (NNE) 1,750 ? -34.6°
